Location: Newark
(29.9790°N, 31.1340°E)
Time: 10:33:19
(UTC+00:00)

Vanguard 3 - Pass Details

Date: 26 January 2021
Orbit: 508 x 3262 km, 33.4° (Epoch: 07 March)

Event Time Altitude Azimuth Distance (km) Brightness Sun altitude
Exits shadow 01:55:25 63° 48° (NE) 1,442 8.3 -37.5°
Drops below altitude 10° 02:05:07 10° 79° (E) 4,423 11.6 -35.4°
Sets 02:09:45 0° 81° (E) 5,882 12.5 -34.4°
